Wind_Speed
8 8 8 8 6 5 4 4 4 4 4 3 3 6 10 13 14 15 17 19 19 18 20 22 23 23 24 26 27 28 30 30 29 32 32 35 47 46 41 37 38 40 42 40 46
6 5 7 8 7 6 5 6 8 8 9 9 9 10 12 13 16 17 18 20 22 23 23 22 21 22 23 26 28 31 34 33 40 42 41 45 46 45 44 44 43 41 43 45 47
6 3 3 3 4 5 6 8 10 10 11 11 12 14 15 15 17 20 23 25 25 25 26 27 28 28 27 26 27 30 34 38 43 45 42 45 47 47 49 49 48 46 44 48 50
7 6 5 5 6 7 9 10 11 14 13 13 15 16 17 16 20 25 25 27 26 26 28 29 29 30 28 27 27 28 34 38 42 46 48 47 49 48 50 51 51 51 44 47 50
9 9 8 10 12 12 13 11 14 15 15 16 18 17 19 21 27 31 30 28 28 27 27 28 29 28 27 27 28 28 27 30 34 37 40 42 43 44 46 50 49 50 47 47 49
12 12 13 15 18 19 18 16 17 18 18 19 21 21 24 30 32 31 27 26 26 27 27 28 27 27 27 26 26 25 25 26 29 31 34 36 36 37 37 44 48 48 44 45 47
14 16 17 18 18 20 21 21 23 22 21 21 22 25 29 34 31 27 27 26 27 27 27 26 26 27 26 23 22 23 24 26 30 31 31 33 31 32 36 40 42 42 42 42 45
16 18 19 19 18 18 20 20 21 21 23 25 26 30 32 26 26 29 28 29 25 25 25 25 26 26 23 20 20 24 25 24 25 29 31 34 29 30 32 33 34 37 37 35 37
18 19 20 20 18 17 18 18 20 23 26 27 29 27 25 24 26 27 29 30 28 25 22 25 25 22 20 19 20 18 23 27 24 31 36 37 36 34 33 31 31 31 29 28 28
19 19 19 19 17 18 19 21 23 26 25 27 27 27 24 28 28 28 28 27 26 24 23 23 25 26 25 27 26 27 26 29 30 28 32 35 39 37 35 32 28 27 28 28 24
17 17 18 19 20 21 22 24 25 26 26 27 28 28 29 29 29 27 27 28 26 22 22 24 21 23 21 21 24 26 29 30 30 29 30 30 29 30 33 30 26 28 30 30 28
16 16 18 20 21 23 26 27 28 29 29 30 28 27 28 29 28 24 26 24 23 20 20 19 21 20 21 22 23 25 28 29 28 27 31 27 27 24 24 29 32 29 31 34 35
18 18 20 22 24 26 26 27 29 29 28 26 27 29 30 29 27 26 25 23 21 19 20 17 16 18 19 21 24 24 25 27 30 29 29 27 27 19 13 25 30 33 33 36 40
21 21 24 25 25 25 27 28 29 30 30 27 27 27 30 32 29 22 23 22 19 19 19 20 17 20 21 23 25 24 25 26 29 31 30 21 25 21 16 18 27 33 29 31 34
22 24 25 24 25 25 27 28 28 29 31 27 28 29 30 29 26 28 20 19 21 19 20 20 21 21 23 22 23 24 24 22 23 28 25 12 18 12 21 24 17 31 34 35 38
22 22 23 24 24 25 25 26 27 28 28 29 28 28 28 29 30 29 27 24 20 20 24 23 24 25 23 24 23 25 27 26 21 20 25 25 20 12 18 30 36 34 41 37 40
25 25 25 24 25 25 26 27 28 27 28 29 29 30 30 29 29 30 30 27 25 26 26 25 26 28 26 26 24 22 25 28 23 19 13 20 25 28 22 29 34 41 42 40 36
30 31 29 28 29 30 29 30 28 28 28 30 31 29 31 27 29 29 29 27 28 32 26 31 25 31 29 28 28 25 23 26 28 25 20 15 19 19 28 37 23 39 38 42 41
29 30 31 32 33 32 32 32 32 31 31 30 29 30 30 34 34 34 33 33 27 29 30 32 32 30 27 29 29 28 25 26 28 27 27 22 17 20 33 33 16 30 33 37 41
30 31 31 35 35 34 35 33 31 34 28 33 31 31 31 31 32 33 34 32 36 32 29 29 34 25 28 28 26 30 24 25 27 30 30 26 28 12 32 37 45 40 39 36 37
37 38 37 40 37 36 33 31 32 34 34 33 34 34 34 34 34 35 34 31 36 33 34 33 33 26 28 27 28 24 27 27 29 30 33 34 28 19 27 33 39 39 38 34 34
42 42 46 42 40 35 32 30 31 34 38 37 35 35 35 35 36 35 34 33 40 36 35 35 36 33 29 25 30 30 27 29 29 28 33 35 25 29 31 32 32 36 39 37 34
44 46 46 43 39 34 36 35 34 37 35 38 40 39 38 38 39 38 35 32 35 35 35 39 40 38 31 24 31 32 21 32 35 35 32 38 34 34 33 29 34 41 42 35 38
46 44 43 43 39 40 38 37 39 40 41 39 40 41 41 40 39 42 42 40 38 39 38 36 39 35 36 32 29 33 37 38 35 40 38 39 44 36 38 36 40 40 38 36 38
50 47 44 38 41 46 43 41 40 42 43 46 45 40 41 44 43 44 44 42 37 38 38 39 44 38 36 35 36 40 38 36 41 37 42 41 42 38 38 42 42 42 34 34 34
49 45 46 45 41 41 45 45 45 44 46 46 47 48 47 45 45 46 44 42 41 39 36 38 43 41 40 39 39 46 38 39 41 40 37 36 39 36 43 46 43 45 40 33 33
48 48 46 46 47 48 46 48 49 51 50 49 48 49 47 46 47 45 45 42 42 43 38 39 41 41 42 43 43 46 35 40 39 40 41 46 44 45 45 47 45 43 42 38 35
Wind_Direction
349 3 19 31 35 42 60 35 6 353 334 312 262 266 289 302 306 306 312 312 308 304 301 298 291 286 284 280 275 270 268 268 269 257 246 250 251 258 258 252 256 257 252 254 258
351 25 46 54 63 59 39 10 356 347 334 326 317 310 311 315 316 316 315 314 310 312 314 317 310 303 294 284 278 273 271 266 263 260 262 266 267 266 263 259 250 254 253 250 254
330 318 17 29 23 18 10 3 0 358 349 340 332 328 324 323 320 326 322 321 325 322 322 322 321 314 305 298 283 273 266 262 264 266 264 265 266 266 262 260 258 254 251 253 251
323 302 295 314 326 334 340 349 352 349 348 343 334 331 331 323 327 331 331 328 325 325 325 323 319 315 306 298 288 277 270 266 263 265 265 264 264 266 266 264 260 258 252 251 252
326 308 295 302 307 312 322 327 332 333 332 333 337 330 330 327 329 333 333 333 333 331 325 322 320 315 309 304 297 290 280 275 272 272 270 269 267 266 265 267 266 262 258 254 253
326 327 314 306 304 302 303 312 317 322 321 318 319 318 314 320 324 330 332 336 336 332 328 326 323 318 315 310 304 297 288 284 280 277 274 274 272 270 267 263 262 261 262 257 253
325 329 326 320 314 305 303 300 310 313 314 310 313 311 311 319 325 332 335 336 336 335 333 329 327 324 321 316 310 299 293 286 284 279 281 277 275 272 268 265 267 266 258 255 254
323 331 335 334 328 327 319 315 314 314 315 313 310 313 320 324 329 332 333 334 338 337 334 332 330 329 324 316 308 297 291 294 305 297 292 279 275 276 269 267 268 267 264 258 257
317 323 331 335 332 327 321 322 323 319 317 318 318 326 328 336 336 335 335 338 339 340 334 333 333 324 324 313 311 337 310 311 294 273 286 284 284 274 265 264 261 265 265 265 261
314 320 326 328 328 326 324 322 323 326 324 328 330 330 335 338 340 337 337 339 337 335 331 327 324 333 334 339 325 311 301 300 302 297 290 286 280 273 265 258 259 263 269 271 266
313 315 319 318 321 323 325 324 321 313 327 334 333 337 338 338 340 337 336 335 333 329 322 328 330 329 340 329 318 307 301 301 298 307 304 301 294 277 262 260 256 259 264 266 269
306 310 313 312 315 322 323 326 324 326 331 333 331 337 341 340 339 337 331 326 322 317 318 324 327 331 333 330 327 322 319 317 315 313 308 302 293 292 278 259 257 260 266 264 274
303 305 306 308 311 314 320 325 326 326 330 329 334 335 338 338 338 333 329 321 312 307 311 317 317 324 329 329 332 329 326 321 316 311 311 297 284 289 295 282 274 266 264 265 270
307 309 308 308 310 311 317 320 325 327 326 329 334 336 336 337 333 336 323 313 300 300 303 306 312 317 324 326 334 332 326 325 317 316 319 294 288 273 296 279 281 276 274 274 287
313 310 311 312 312 315 317 319 323 326 329 337 337 333 334 332 335 333 329 304 296 292 299 302 310 309 314 321 324 327 324 328 331 327 330 354 298 345 262 269 252 285 292 300 298
315 314 314 314 315 314 315 316 320 324 325 327 331 334 335 337 335 335 332 324 292 284 294 296 299 303 308 309 314 319 325 332 337 342 322 338 295 289 269 252 261 281 285 299 300
303 311 314 314 315 316 315 313 314 315 321 324 327 326 327 328 327 328 329 326 314 297 288 291 295 296 300 299 303 312 317 324 333 334 316 296 291 300 287 286 275 282 283 293 303
297 299 305 309 311 311 311 310 305 304 307 312 316 317 319 323 327 324 321 321 317 313 292 282 282 290 295 300 301 305 311 317 323 327 325 317 298 301 282 276 276 279 286 295 302
292 292 298 304 306 303 304 305 299 296 300 305 310 315 319 321 324 326 322 320 313 306 305 295 287 287 290 293 294 297 304 309 318 324 326 334 319 271 280 286 266 292 299 301 303
292 297 299 301 301 300 300 301 292 292 294 301 306 311 312 313 315 315 318 314 312 313 306 298 291 286 285 289 284 286 294 305 308 318 320 325 324 324 279 282 278 282 287 286 298
294 296 296 301 300 297 298 295 293 294 298 300 301 304 308 310 312 314 313 308 304 310 305 301 298 300 289 291 286 286 294 298 301 309 313 318 326 296 291 279 279 276 272 277 295
292 300 297 297 301 293 293 293 294 291 294 295 294 298 301 303 306 310 306 303 304 308 303 299 300 295 290 289 280 277 279 285 289 298 301 309 338 315 315 300 282 278 274 273 283
288 294 293 291 290 288 285 289 286 289 288 289 292 294 297 299 301 304 303 299 299 301 299 302 299 298 294 290 286 284 294 289 289 292 297 301 317 307 306 306 308 294 290 288 289
295 293 288 292 276 278 278 278 281 283 286 282 285 290 292 295 299 301 303 301 300 301 299 297 293 292 291 289 279 279 272 278 283 290 302 297 306 309 312 301 293 302 300 290 288
290 292 287 278 280 282 277 274 273 278 280 284 286 284 287 292 295 294 297 296 296 296 296 295 296 294 289 286 283 281 282 287 283 290 282 298 292 302 300 299 304 302 304 293 290
285 283 282 282 275 271 272 276 276 276 277 280 282 285 289 290 289 292 295 295 296 294 292 289 292 290 290 288 284 280 284 285 286 285 299 290 294 294 292 295 299 301 309 296 286
280 280 278 279 279 277 276 275 275 277 277 278 280 282 284 285 287 290 289 293 294 292 291 285 287 288 289 288 284 279 292 285 284 281 274 284 286 289 289 288 289 299 303 297 295
Height
5863 5861 5859 5857 5856 5856 5855 5855 5854 5854 5853 5853 5852 5851 5850 5849 5849 5848 5847 5847 5846 5845 5844 5844 5844 5843 5843 5843 5842 5841 5841 5840 5839 5837 5836 5837 5832 5833 5838 5844 5843 5843 5846 5848 5842
5863 5862 5860 5859 5858 5857 5856 5856 5855 5854 5853 5852 5851 5851 5850 5848 5847 5846 5844 5843 5841 5840 5839 5838 5837 5837 5836 5835 5835 5834 5833 5833 5827 5828 5830 5828 5827 5828 5831 5831 5834 5836 5836 5837 5836
5863 5863 5861 5860 5859 5858 5857 5856 5855 5853 5852 5851 5850 5849 5847 5846 5845 5842 5841 5839 5837 5835 5834 5832 5831 5830 5829 5828 5826 5825 5825 5823 5819 5819 5821 5820 5820 5819 5819 5820 5823 5826 5828 5827 5828
5863 5862 5861 5860 5859 5858 5857 5855 5854 5853 5852 5850 5849 5847 5845 5843 5843 5840 5837 5835 5832 5831 5829 5827 5826 5824 5822 5820 5817 5818 5815 5813 5811 5809 5809 5811 5810 5811 5809 5810 5812 5814 5819 5819 5819
5863 5862 5861 5860 5859 5858 5856 5854 5853 5851 5850 5849 5847 5845 5843 5841 5839 5836 5833 5830 5828 5826 5824 5822 5819 5817 5814 5812 5809 5807 5806 5804 5801 5800 5799 5798 5800 5800 5801 5798 5801 5803 5808 5808 5809
5862 5861 5860 5859 5858 5856 5855 5853 5851 5850 5848 5846 5844 5842 5840 5838 5836 5833 5830 5827 5824 5822 5819 5816 5813 5810 5807 5804 5802 5799 5798 5797 5795 5792 5790 5789 5789 5790 5792 5788 5787 5792 5798 5798 5797
5861 5860 5858 5857 5855 5854 5853 5851 5849 5847 5846 5844 5841 5838 5836 5834 5831 5828 5825 5823 5820 5817 5813 5810 5807 5804 5801 5798 5796 5794 5793 5791 5787 5785 5783 5780 5782 5780 5779 5779 5779 5781 5785 5788 5787
5860 5859 5857 5855 5853 5851 5850 5848 5847 5845 5842 5840 5838 5835 5833 5829 5827 5823 5821 5818 5815 5812 5807 5804 5801 5798 5796 5794 5792 5789 5788 5785 5780 5776 5775 5773 5776 5772 5770 5771 5771 5772 5775 5778 5777
5858 5856 5854 5853 5851 5849 5847 5845 5843 5841 5839 5836 5834 5831 5829 5825 5823 5818 5815 5812 5808 5805 5803 5799 5797 5795 5792 5790 5787 5785 5781 5779 5778 5773 5768 5765 5766 5765 5762 5764 5764 5764 5765 5768 5770
5856 5854 5852 5850 5849 5846 5844 5842 5840 5837 5835 5831 5829 5827 5825 5820 5816 5813 5810 5807 5804 5800 5798 5797 5793 5789 5785 5781 5781 5779 5777 5773 5770 5768 5761 5758 5754 5754 5754 5755 5759 5757 5756 5757 5762
5853 5852 5850 5848 5846 5843 5842 5839 5838 5836 5831 5828 5824 5820 5817 5815 5812 5809 5805 5802 5799 5796 5794 5791 5789 5786 5783 5780 5777 5773 5769 5766 5763 5758 5754 5750 5747 5745 5746 5749 5752 5751 5750 5749 5751
5850 5848 5847 5844 5842 5840 5837 5834 5831 5829 5826 5822 5820 5817 5813 5810 5807 5804 5801 5799 5795 5792 5790 5788 5785 5783 5779 5776 5773 5768 5762 5758 5756 5752 5747 5744 5741 5739 5740 5741 5742 5745 5744 5742 5742
5847 5845 5843 5840 5838 5836 5833 5830 5827 5824 5822 5819 5815 5810 5808 5806 5803 5799 5796 5793 5791 5788 5786 5784 5782 5779 5775 5772 5768 5763 5758 5753 5749 5745 5742 5737 5735 5734 5736 5734 5735 5736 5737 5735 5733
5843 5841 5838 5836 5835 5831 5829 5825 5822 5818 5815 5814 5811 5807 5803 5798 5797 5796 5791 5789 5786 5784 5781 5779 5777 5774 5771 5767 5763 5758 5754 5749 5743 5738 5734 5730 5726 5729 5732 5732 5725 5726 5726 5725 5724
5838 5836 5834 5831 5828 5826 5823 5820 5817 5815 5811 5809 5804 5802 5798 5796 5793 5788 5787 5783 5781 5779 5778 5775 5771 5769 5766 5762 5759 5756 5752 5747 5740 5734 5729 5726 5725 5727 5724 5727 5721 5720 5719 5716 5714
5834 5831 5829 5826 5823 5821 5819 5816 5813 5811 5806 5803 5800 5798 5794 5789 5785 5782 5781 5778 5776 5774 5771 5769 5766 5763 5761 5758 5754 5750 5746 5742 5736 5730 5728 5727 5723 5724 5724 5714 5715 5713 5711 5708 5704
5830 5827 5824 5821 5818 5816 5813 5811 5809 5806 5801 5798 5795 5791 5789 5786 5782 5777 5774 5771 5768 5766 5765 5763 5760 5756 5755 5753 5750 5745 5741 5736 5733 5728 5728 5724 5717 5715 5714 5710 5705 5704 5702 5700 5697
5824 5822 5819 5815 5813 5810 5808 5805 5803 5800 5796 5793 5790 5787 5783 5781 5776 5773 5769 5765 5761 5757 5758 5755 5756 5750 5748 5746 5742 5739 5736 5732 5726 5723 5720 5717 5714 5715 5708 5704 5697 5694 5691 5689 5687
5816 5815 5812 5809 5806 5803 5801 5798 5794 5791 5790 5788 5785 5781 5777 5771 5768 5766 5762 5758 5757 5752 5751 5746 5744 5744 5741 5738 5736 5732 5730 5726 5721 5718 5713 5710 5710 5709 5697 5696 5688 5686 5684 5681 5678
5807 5805 5804 5801 5798 5795 5793 5790 5787 5782 5784 5779 5776 5775 5771 5768 5765 5760 5756 5752 5747 5745 5743 5741 5734 5739 5735 5731 5729 5724 5723 5719 5715 5711 5706 5704 5700 5695 5690 5685 5682 5679 5676 5673 5671
5800 5796 5795 5791 5789 5787 5783 5780 5777 5774 5772 5772 5768 5765 5762 5758 5755 5753 5750 5746 5739 5737 5733 5730 5728 5730 5726 5725 5720 5718 5713 5711 5707 5704 5699 5694 5694 5690 5682 5678 5672 5672 5669 5665 5661
5791 5788 5782 5781 5780 5776 5773 5770 5769 5767 5762 5761 5759 5756 5753 5750 5746 5744 5741 5737 5730 5730 5726 5723 5719 5716 5717 5717 5712 5710 5708 5705 5700 5700 5694 5688 5686 5681 5675 5669 5665 5661 5657 5655 5653
5780 5776 5773 5770 5768 5766 5762 5760 5758 5755 5754 5751 5747 5745 5743 5740 5737 5734 5731 5728 5723 5720 5717 5713 5709 5706 5707 5711 5703 5699 5698 5695 5692 5688 5687 5679 5678 5674 5669 5661 5657 5650 5646 5645 5640
5768 5766 5762 5759 5757 5754 5753 5752 5748 5744 5741 5742 5739 5735 5732 5729 5726 5722 5720 5718 5714 5710 5707 5704 5700 5700 5697 5697 5695 5691 5690 5687 5682 5675 5672 5671 5663 5666 5658 5655 5648 5642 5637 5634 5630
5752 5751 5748 5750 5745 5742 5741 5741 5738 5735 5731 5726 5726 5726 5721 5719 5716 5712 5710 5707 5706 5702 5698 5692 5688 5688 5687 5686 5683 5679 5679 5678 5671 5669 5662 5662 5656 5655 5650 5644 5639 5633 5629 5624 5620
5738 5737 5736 5735 5734 5732 5730 5728 5725 5723 5720 5718 5716 5712 5709 5708 5704 5701 5699 5696 5693 5691 5688 5683 5678 5676 5675 5673 5672 5664 5670 5667 5662 5658 5652 5650 5646 5645 5639 5634 5629 5622 5618 5615 5611
5723 5722 5720 5724 5720 5717 5717 5715 5713 5709 5709 5705 5703 5701 5698 5695 5691 5690 5686 5685 5682 5678 5676 5672 5667 5665 5662 5660 5656 5652 5659 5652 5650 5648 5643 5639 5637 5632 5628 5622 5618 5614 5609 5605 5601